Location: Newark
(9.1167°S, 159.8667°E)
Time: 20:34:24
(UTC+00:00)

Envisat - Pass Details

Date: 28 September 2019
Orbit: 764 x 766 km, 98.1° (Epoch: 21 October)

Event Time Altitude Azimuth Distance (km) Brightness Sun altitude
Rises 09:09:43 0° 201° (SSW) 3,239 6.6 -28.8°
Reaches altitude 10° 09:13:21 10° 228° (SW) 2,307 6.1 -29.7°
Maximum altitude 09:15:34 13° 254° (WSW) 2,107 6.1 -30.2°
Drops below altitude 10° 09:17:47 10° 281° (W) 2,300 6.3 -30.8°
Sets 09:21:25 0° 308° (NW) 3,220 6.8 -31.7°
